Regional Weather Roundup
Issued by NWS

Home | Current Version | Previous Version | Graphics & Text | Print | Product List | Glossary On
Versions: 1 2 3 4 5 6 7 8 9 10 11 12 13 14 15 16 17 18 19 20 21 22 23 24 25 26 27 28 29 30 31 32 33 34 35 36 37 38 39 40 41 42 43 44 45 46 47 48 49 50
000
ASUS43 KDTX 052201
RWRMI
MICHIGAN HOURLY REGIONAL WEATHER ROUNDUP
NATIONAL WEATHER SERVICE DETROIT/PONTIAC MI
600 PM EDT TUE MAY 05 2015

NOTE: "FAIR" INDICATES FEW OR NO CLOUDS BELOW 12,000 FEET WITH NO
SIGNIFICANT WEATHER AND/OR OBSTRUCTION TO VISIBILITY.

MIZ047>049-052>055-059>063-066>070-074>076-081>083-052300-
SOUTHEAST LOWER MICHIGAN

CITY           SKY/WX    TMP DP  RH WIND       PRES   REMARKS
ADRIAN         CLOUDY    53  50  89 E10       30.25F
ALMA           PTSUNNY   57  47  68 E6        30.28F
ANN ARBOR      LGT RAIN  50  47  89 NE9       30.27S FOG
BAD AXE        CLOUDY    55  46  70 N3        30.28F
CARO           CLOUDY    58  44  59 CALM      30.27F
DETROIT CITY   LGT RAIN  50  49  96 NE5       30.27F FOG
DETROIT        LGT RAIN  53  48  83 NE9       30.27F
FLINT          CLOUDY    55  49  80 E7        30.27F
GROSSE ILE     CLOUDY    54  48  82 NE10      30.25F
HILLSDALE      LGT RAIN  53  53 100 NE7       30.24S
HOWELL         RAIN      51  50  97 CALM      30.26F

CITY           SKY/WX    TMP DP  RH WIND       PRES   REMARKS
JACKSON        LGT RAIN  49  47  93 NE10      30.26F FOG
LAMBERTVILLE   CLOUDY    55  50  82 E8        30.25S
LANSING        CLOUDY    51  50  96 E5        30.28F
LAPEER         DRIZZLE   54  48  82 SE5       30.27F
MASON          LGT RAIN  49  47  92 E3        30.26F
MONROE         CLOUDY    54  48  82 NE8       30.25S
MT. CLEMENS    LGT RAIN  53  51  94 NE7       30.25F FOG
PONTIAC        LGT RAIN  51  49  92 E3        30.26F
PORT HOPE        N/A     45  39  79 NW6       30.27F
PORT HURON     LGT RAIN  48  46  93 CALM      30.28F
TRI CITIES     CLOUDY    60  44  55 E8        30.28F
MIDLAND        NOT AVBL
TROY           RAIN      52  51  95 NE6       30.28F
SAGINAW HB     CLOUDY    59  45  58 NE8       30.27F
$$
MIZ043>046-050>051-056>058-064>065-071>073-077>080-052300-
SOUTHWEST LOWER MICHIGAN

CITY           SKY/WX    TMP DP  RH WIND       PRES   REMARKS
BATTLE CREEK   LGT RAIN  50  48  93 E7        30.25F
BENTON HARBOR  CLOUDY    56  52  86 E10       30.20F
BIG RAPIDS     CLOUDY    63  25  23 SE12G17   30.26S
COLDWATER      CLOUDY    53  51  94 NE10      30.23F FOG
FREMONT        PTSUNNY   60  31  33 E7        30.25F
HOLLAND        CLOUDY    53  50  89 E10       30.24F
GRAND RAPIDS   CLOUDY    53  49  86 E10       30.26F
IONIA          CLOUDY    54  50  86 E6        30.27F
KALAMAZOO      CLOUDY    51  47  86 NE7       30.24F
LUDINGTON      PTSUNNY   62  33  34 NW3       30.25F
MARSHALL       DRIZZLE   48  47  95 E6        30.25F
MOUNT PLEASANT PTSUNNY   63  39  41 SE5       30.26S
MUSKEGON       CLOUDY    62  49  62 NE13      30.24F
SOUTH HAVEN    CLOUDY    53  50  88 E12       30.22F
$$
MIZ016>042-052300-
NORTHERN LOWER MICHIGAN

CITY           SKY/WX    TMP DP  RH WIND       PRES   REMARKS
ALPENA         MOSUNNY   63  46  54 E8        30.28F
BEAVER ISLAND  SUNNY     63  31  29 W5        30.28S
BELLAIRE       SUNNY     68  23  18 W8        30.25F
CADILLAC       MOSUNNY   65  16  15 NE7       30.25S
CHARLEVOIX     SUNNY     56  32  39 N5        30.29F
FRANKFORT      PTSUNNY   66  25  21 CALM      30.25F
GAYLORD        SUNNY     67  19  16 CALM      30.25F
GRAYLING       MOSUNNY   67  21  17 CALM      30.26S
HARBOR SPRINGS SUNNY     63  30  28 E7        30.26S
HOUGHTON LAKE  PTSUNNY   67  21  17 CALM      30.26F
MANISTEE       PTSUNNY   59  28  31 NW9       30.25F
OSCODA         CLOUDY    50  41  72 E5        30.28F
PELLSTON       SUNNY     68  23  18 NE9       30.27F
ROGERS CITY    SUNNY     57  45  64 NE5       30.30S
TRAVERSE CITY  MOSUNNY   58  37  45 NE8       30.24F
$$
MIZ007>008-015-052300-
EASTERN UPPER MICHIGAN

CITY           SKY/WX    TMP DP  RH WIND       PRES   REMARKS
KINROSS        SUNNY     64  25  22 NE3       30.27F
MACKINAC ISLAN SUNNY     64  27  24 S6        30.27S
NEWBERRY       SUNNY     67  30  25 S14       30.26S
S. S. MARIE    SUNNY     67  25  20 NW8       30.26F
$$
MIZ004>006-011>014-085-052300-
CENTRAL UPPER MICHIGAN

CITY           SKY/WX    TMP DP  RH WIND       PRES   REMARKS
MANISTIQUE     SUNNY     64  25  23 S7        30.27F
ESCANABA       SUNNY     63  27  25 SE7       30.27F
MENOMINEE      MOSUNNY   61  28  29 E5        30.27F
SAWYER-GWINN   SUNNY     68  30  24 S10       30.25F
$$
MIZ001>003-009>011-084-052300-
WESTERN UPPER MICHIGAN

CITY           SKY/WX    TMP DP  RH WIND       PRES   REMARKS
IRON MOUNTAIN  SUNNY     67  28  23 SE14G21   30.24F
HOUGHTON       SUNNY     63  28  26 E13       30.23F
COPPER HARBOR    N/A     66  25  21 SE8       30.23F
IRONWOOD       SUNNY     72  30  21 S5G17     30.14F
$$

ABBREVIATIONS USED IN REMARKS
   TC - TEMPERATURE IN CELSIUS
  WCI - WIND CHILL INDEX
   HX - HEAT INDEX
  VSB - VISIBILITY




USA.gov is the U.S. government's official web portal to all federal, state and local government web resources and services.